This is the latest recevied weather packets stored in our database for station/object K1BWE-1. If no packets are shown the sender has not sent any weather packets the latest 1 day(s).
| Time | Temp. | Humidity | Pressure | Rain* | Wind** | Luminosity | Snow |
|---|---|---|---|---|---|---|---|
| 1778093436 | 21.67° C | 27% | 1017.4 hPa | 0 mm | - | 778 W/m² | - |
| 1778091921 | 21.67° C | 27% | 1017.7 hPa | 0 mm | - | 756 W/m² | - |
| 1778091618 | 21.67° C | 28% | 1017.8 hPa | 0 mm | - | 750 W/m² | - |
| 1778090709 | 22.22° C | 27% | 1017.8 hPa | 0 mm | - | 791 W/m² | - |
| 1778089497 | 21.67° C | 28% | 1017.9 hPa | 0 mm | - | 733 W/m² | - |
| 1778088587 | 21.11° C | 34% | 1017.8 hPa | 0 mm | - | 760 W/m² | - |
| 1778087678 | 21.11° C | 33% | 1017.8 hPa | 0 mm | - | 756 W/m² | - |
| 1778087376 | 20° C | 37% | 1017.8 hPa | 0 mm | - | 781 W/m² | - |
| 1778086159 | 20.56° C | 33% | 1017.8 hPa | 0 mm | - | 834 W/m² | - |
| 1778083425 | 20° C | 33% | 1017.7 hPa | 0 mm | - | 602 W/m² | - |
| 1778082818 | 19.44° C | 37% | 1017.6 hPa | 0 mm | - | 510 W/m² | - |
| 1778080178 | 17.78° C | 41% | 1017.5 hPa | 0 mm | - | 300 W/m² | - |
| 1778078360 | 21.11° C | 38% | 1017.4 hPa | 0 mm | - | 238 W/m² | - |
| 1778075940 | 16.67° C | 49% | 1017.5 hPa | 0 mm | - | 130 W/m² | - |
| 1778075333 | 15.56° C | 52% | 1017.5 hPa | 0 mm | - | 104 W/m² | - |
| 1778074423 | 13.89° C | 62% | 1017.4 hPa | 0 mm | - | 52 W/m² | - |
| 1778073515 | 11.67° C | 68% | 1017.4 hPa | 0 mm | - | 36 W/m² | - |
| 1778073211 | 11.67° C | 70% | 1017.3 hPa | 0 mm | - | 31 W/m² | - |
| 1778071699 | 8.33° C | 82% | 1017.2 hPa | 0 mm | - | 8 W/m² | - |
| 1778071093 | 8.33° C | 83% | 1017.1 hPa | 0 mm | - | 3 W/m² | - |
| 1778070488 | 8.33° C | 81% | 1017 hPa | 0 mm | - | 0 W/m² | - |
| 1778069277 | 9.44° C | 75% | 1016.7 hPa | 0 mm | - | 0 W/m² | - |
| 1778068975 | 9.44° C | 74% | 1016.7 hPa | 0 mm | - | 0 W/m² | - |
| 1778068672 | 9.44° C | 74% | 1016.6 hPa | 0 mm | - | 0 W/m² | - |
| 1778068370 | 9.44° C | 76% | 1016.5 hPa | 0 mm | - | 0 W/m² | - |
* Rain latest hour (hover to see other rain measurements)
** Current wind speed in m/s (hover to see current wind gust speed)